Regional Weather Roundup
Issued by NWS Northern Indiana

Home | Current Version | Previous Version | Text Only | Print | Product List | Glossary On
Versions: 1 2 3 4 5 6 7 8 9 10 11 12 13 14 15 16 17 18 19 20 21 22 23 24 25 26 27 28 29 30 31 32 33 34 35 36 37 38 39 40 41 42 43 44 45 46 47 48 49 50
000
ASUS43 KIWX 032110
RWRIWX

KIWX WEATHER ROUNDUP
NATIONAL WEATHER SERVICE NORTHERN INDIANA
500 PM EDT MON AUG 03 2020

NOTE: "FAIR" INDICATES FEW OR NO CLOUDS BELOW 12,000 FEET WITH NO
SIGNIFICANT WEATHER AND/OR OBSTRUCTIONS TO VISIBILITY.

* THESE STATIONS ARE NOT UNDER NWS QUALITY CONTROL. THEY ALSO MAY NOT
  REPORT WEATHER SUCH AS PRECIPITATION OR FOG.

INZ001>027-032200-
NORTHERN INDIANA

CITY           SKY/WX    TMP DP  RH WIND       PRES   REMARKS
GARY*          CLOUDY    70 N/A N/A N13       30.03S
VALPARAISO     MOSUNNY   70  63  78 N13G23    30.00S
MICHIGAN CITY* CLOUDY    66  66 100 N18       30.01F
LAPORTE*       PTSUNNY   70  64  81 N13G23    30.01R
KNOX*          MOSUNNY   73  63  68 N12G17    29.98S
SOUTH BEND     MOSUNNY   74  62  66 NW12      29.98S
ELKHART*       PTSUNNY   75  63  64 NW8       29.97S
GOSHEN         SUNNY     78  62  57 W12       29.96S
MONTICELLO*    PTSUNNY   78  63  59 NW10      29.96S
LOGANSPORT*    CLOUDY    75  64  69 CALM      29.96S
ROCHESTER*     MOSUNNY   79  63  57 N8        29.96S
PLYMOUTH*      MOSUNNY   75  63  64 N9G17     29.97S
AUBURN*        MOSUNNY   81  61  50 W12       29.95S
FORT WAYNE     PTSUNNY   82  63  52 NW6       29.95S
HUNTINGTON*    MOSUNNY  N/A N/A N/A NW3       29.95S
PERU/GRISSOM   PTSUNNY   80  66  63 NW9       29.95S

$$
INZ028>050-032200-
CENTRAL INDIANA

CITY           SKY/WX    TMP DP  RH WIND       PRES   REMARKS
LAFAYETTE      PTSUNNY   79  64  60 NW9G20    29.96S
KOKOMO*        CLOUDY    80  64  58 NW6       29.96F
MARION*        PTSUNNY   76  66  70 CALM      29.96S
MUNCIE*        CLOUDY    77  66  68 CALM      29.95F
PORTLAND*      FAIR      75  63  64 CALM      29.95F
INDIANAPOLIS   TSTM      68  65  90 N7        29.96R

$$
MIZ043>046-050>051-056>058-064>065-071>073-077>080-032200-
SOUTHWEST LOWER MICHIGAN

CITY           SKY/WX    TMP DP  RH WIND       PRES   REMARKS
BATTLE CREEK   MOSUNNY   79  62  56 NW8       29.96S
BENTON HARBOR  CLOUDY    70  60  70 VRB7      29.99S
COLDWATER*     MOSUNNY   77  63  61 NW8       29.95S
HILLSDALE*     MOSUNNY   78  63  60 W9        29.94S
HOLLAND        MOSUNNY   75  61  61 NW7G18    29.97F
GRAND RAPIDS   PTSUNNY   75  63  66 N14       29.96S
KALAMAZOO      PTSUNNY   79  60  52 NW8G17    29.95S
STURGIS*       PTSUNNY   79  62  55 NW7       29.95S
THREE RIVERS*  FAIR      77  61  56 NW10      29.96R

$$
OHZ001>008-015>018-024>025-032200-
NORTHWEST OHIO

CITY           SKY/WX    TMP DP  RH WIND       PRES   REMARKS
WAUSEON*       FAIR      81  64  57 W7        29.93S
DEFIANCE       CLOUDY    81  60  48 NW5       29.94S
FINDLAY        CLOUDY    77  67  71 S9        29.94S
OTTAWA*        FAIR      77  63  61 W8        29.96F
TOLEDO EXPRESS PTSUNNY   83  61  47 W7        29.93S
VAN WERT*      FAIR      75  63  64 NW3       29.96R
LIMA           TSTM      70  66  87 W14       29.96S FOG

$$
AND FOR LAKE MICHIGAN COASTAL AND OPEN LAKE BUOY OBSERVATIONS

STATION/POSITION TEMP    WIND        PRES    VSBY  WAVE
                 AIR SEA DIR/SP/G                  HT/PER
                 (F)     (DEG/KT/KT) (MB)    (MI)  (FT/S)
CALUMET HARBOR    70     340/ 13/ 18 1016.2
MICHIGAN CITY     68     350/ 19/ 20   N/A
SAINT JOSEPH      69     350/ 10/ 14 1016.3
SOUTH LAKE BUOY   67 72  360/ 19/ 25 1015.9F         6/ 7
MICHIGAN CITY     66 72                N/A           6/ 7

$$
&&



USA.gov is the U.S. government's official web portal to all federal, state and local government web resources and services.